Notices

What's New in latest Release from April 7th, 2021:

- Updated Glossary, including Speed of Maximum Gust, and Total Hourly Precipitation

- Updated national and regional climate services offices contacts and prices information

- Addition of station inventory lists for 1981-2010, 1971-2000, and 1961-1990 Normals.

If you haven't already, please take our survey and provide feedback about our website: https://eccc.sondage-survey.ca/f/LanguageSelection.aspx?s=442ca660-fcf1-47c0-95a9-59707d6fd709

Hourly Data Report for December 31, 2019

SAINT JOHN A
NEW BRUNSWICK
Current Station Operator: NAVCAN

45°18'58.000" N
65°53'24.000" W
108.80 m
8104901
71609
YSJ

Download Data

Hourly Data (December 2019)
Hourly Data Report for December 31, 2019
TIME
LST
Temp Definition
°C
Dew Point Definition
°C
Rel Hum Definition
%
Precip. Amount Definition
mm

Wind Dir Definition
10's deg

Wind Spd Definition
km/h
Visibility Definition
km
Stn Press Definition
kPa
Hmdx Definition


Wind Chill Definition


Weather Definition


00:00 -1.8 -5.7 74   8 19 24.1 100.74   -7 LegendNANA
01:00 -2.1 -6.1 74   8 29 24.1 100.67   -9 LegendNANA
02:00 -2.2 -6.1 75   8 18 24.1 100.73   -8 Cloudy
03:00 -2.2 -5.6 77   7 14 24.1 100.73   -7 LegendNANA
04:00 -2.1 -5.5 77   9 19 24.1 100.68   -8 LegendNANA
05:00 -2.1 -5.2 79   9 18 9.7 100.59   -8 Snow
06:00 -2.0 -4.8 82   9 23 12.9 100.43   -8 Snow
07:00 -1.6 -5.2 77   10 28 16.1 100.35   -8 Snow
08:00 -1.5 -4.7 79   9 28 19.3 100.24   -8 Snow
09:00 -1.0 -4.2 79   10 30 19.3 100.23   -8 LegendNANA
10:00 -0.9 -3.7 81   10 28 19.3 100.25   -7 LegendNANA
11:00 -0.8 -3.3 83   10 24 4.8 99.99   -7 Snow
12:00 -1.0 -2.2 92   8 32 1.6 99.65   -8 Snow
13:00 -0.8 -1.9 92   7 32 1.6 99.46   -8 Snow
14:00 -0.5 -1.5 93   7 27 1.2 99.21   -7 Snow,Blowing Snow
15:00 -0.3 -1.4 92   8 34 1.6 99.02   -7 Snow,Ice Pellets,Blowing Snow
16:00 0.3 -0.7 93   9 31 4.8 98.84     Snow,Fog
17:00 0.8 0.0 95   9 28 6.4 98.77     Rain,Snow,Fog
18:00 0.9 0.2 95   9 25 8.1 98.62     Rain,Snow,Fog
19:00 1.2 0.8 97   9 28 8.1 98.44     Fog
20:00 1.8 1.3 97   11 28 9.7 98.24     Fog
21:00 2.1 1.6 97   10 29 9.7 98.07     Fog
22:00 2.4 2.0 97   10 26 4.0 97.92     Rain,Fog
23:00 3.4 3.1 98   10 21 4.8 97.84     Rain,Fog

Notes on Data Quality.

Legend

  • E = Estimated
  • M = Missing
  • NA = Not Available*
  • [empty] = Indicates an unobserved value
Date modified: